Berlin, NH

2:43 PM EST on December 14, 2017 (GMT -0500)
Berlin Municipal

Weather History for KBML - March, 2012

Change the Weather History Date:

Thursday, March 8, 2012

  Actual Average Record
Temperature  
Mean Temperature 52 °F -  
Max Temperature 62 °F 30 °F 62 °F (2012)
Min Temperature 37 °F 8 °F -20 °F (2007)
Degree Days  
Heating Degree Days 13    
Growing Degree Days 2 (Base 50)    
Moisture  
Dew Point 37 °F    
Average Humidity 54    
Maximum Humidity 93    
Minimum Humidity 32    
Precipitation  
Precipitation 0.18 in - - ()
Sea Level Pressure  
Sea Level Pressure 29.82 in    
Wind  
Wind Speed 10 mph (SW)    
Max Wind Speed 18 mph    
Max Gust Speed 38 mph    
Visibility 9 miles    
Events Rain    
Averages and records for this station are not official NWS values.
T = Trace of Precipitation, MM = Missing Value Source: NWS Daily Summary

Daily Weather History Graph

Daily Weather History Graph

Search for Another Location

Airport or City:

Trip Planner

Search our weather history database for the weather conditions in past years. The results will help you decide how hot, cold, wet, or windy it might be!

Date:

Astronomy

Mar. 08, 2012 Rise Set
Actual Time 6:08 AM EST 5:42 PM EST
Civil Twilight 5:39 AM EST 6:11 PM EST
Nautical Twilight 5:06 AM EST 6:45 PM EST
Astronomical Twilight 4:32 AM EST 7:19 PM EST
Moon 6:30 PM EST (3/8) 5:48 AM EST (3/8)
Length of Visible Light 12h 31m
Length of Day
11h 33m
Full, 100% of the Moon is Illuminated
Mar 8
Full
Mar 14
Last Quarter
Mar 22
New
Mar 30
First Quarter
Apr 6
Full

Hourly Weather History & Observations

Time (EST) Temp. Windchill Dew Point Humidity Pressure Visibility Wind Dir Wind Speed Gust Speed Precip Events Conditions
12:52 AM 53.1 °F - 24.1 °F 32% 30.10 in 10.0 mi WSW 5.8 mph - N/A   Clear
1:52 AM 54.0 °F - 25.0 °F 33% 30.07 in 10.0 mi SW 12.7 mph 19.6 mph N/A   Clear
2:52 AM 53.1 °F - 25.0 °F 34% 30.04 in 10.0 mi WSW 9.2 mph 21.9 mph N/A   Clear
3:52 AM 54.0 °F - 26.1 °F 34% 30.01 in 10.0 mi WSW 12.7 mph 25.3 mph N/A   Clear
4:52 AM 54.0 °F - 28.0 °F 37% 30.01 in 10.0 mi SW 13.8 mph 25.3 mph N/A   Clear
5:52 AM 54.0 °F - 30.0 °F 40% 30.01 in 10.0 mi SW 13.8 mph 19.6 mph N/A   Clear
6:52 AM 53.1 °F - 30.9 °F 43% 29.99 in 10.0 mi SW 11.5 mph 23.0 mph N/A   Clear
7:52 AM 55.0 °F - 32.0 °F 42% 29.97 in 10.0 mi SSW 15.0 mph 23.0 mph N/A   Clear
8:52 AM 55.9 °F - 34.0 °F 44% 29.95 in 10.0 mi SSW 10.4 mph - N/A   Clear
9:52 AM 57.9 °F - 36.0 °F 44% 29.93 in 10.0 mi SW 13.8 mph 26.5 mph N/A   Clear
10:52 AM 60.1 °F - 37.0 °F 42% 29.86 in 10.0 mi Variable 3.5 mph 19.6 mph N/A   Clear
11:52 AM 62.1 °F - 37.0 °F 39% 29.85 in 10.0 mi Variable 6.9 mph 19.6 mph N/A   Overcast
12:52 PM 61.0 °F - 37.9 °F 42% 29.81 in 10.0 mi SSW 12.7 mph 31.1 mph N/A   Mostly Cloudy
1:52 PM 60.1 °F - 39.0 °F 46% 29.77 in 10.0 mi SSW 10.4 mph 21.9 mph N/A   Overcast
2:52 PM 59.0 °F - 39.9 °F 49% 29.75 in 10.0 mi SSW 9.2 mph - N/A   Overcast
3:52 PM 57.9 °F - 39.9 °F 51% 29.74 in 10.0 mi Variable 4.6 mph - N/A   Overcast
4:52 PM 57.0 °F - 42.1 °F 57% 29.73 in 10.0 mi SSW 8.1 mph - N/A   Overcast
5:52 PM 55.0 °F - 46.0 °F 72% 29.74 in 7.0 mi SSW 3.5 mph - 0.01 in Rain Light Rain
6:52 PM 52.0 °F - 46.0 °F 80% 29.68 in 10.0 mi Calm Calm - 0.02 in   Overcast
7:52 PM 57.9 °F - 45.0 °F 62% 29.63 in 10.0 mi SW 15.0 mph 32.2 mph N/A   Overcast
8:52 PM 57.9 °F - 45.0 °F 62% 29.59 in 10.0 mi SW 11.5 mph 32.2 mph 0.00 in Rain Light Rain
9:52 PM 57.0 °F - 45.0 °F 64% 29.55 in 10.0 mi SW 18.4 mph 38.0 mph 0.00 in   Overcast
10:45 PM 46.4 °F 39.8 °F 44.6 °F 93% 29.58 in 1.8 mi NNW 16.1 mph 31.1 mph 0.08 in Rain Heavy Rain
10:52 PM 44.1 °F 39.0 °F 41.0 °F 89% 29.61 in 2.0 mi NW 9.2 mph 28.8 mph 0.12 in Rain Heavy Rain
11:02 PM 42.8 °F 39.3 °F 39.2 °F 87% 29.61 in 5.0 mi Variable 5.8 mph - 0.01 in Rain Light Rain
11:52 PM 37.9 °F 35.5 °F 34.0 °F 86% 29.70 in 5.0 mi Variable 3.5 mph - 0.03 in Rain Light Rain